Notices

What's New in latest Release from April 7th, 2021:

- Updated Glossary, including Speed of Maximum Gust, and Total Hourly Precipitation

- Updated national and regional climate services offices contacts and prices information

- Addition of station inventory lists for 1981-2010, 1971-2000, and 1961-1990 Normals.

If you haven't already, please take our survey and provide feedback about our website: https://eccc.sondage-survey.ca/f/LanguageSelection.aspx?s=442ca660-fcf1-47c0-95a9-59707d6fd709

Hourly Data Report for January 21, 2003

TORONTO CITY
ONTARIO

43°40'00.000" N
79°24'00.000" W
112.50 m
6158355
71508
XTO

Download Data

Hourly Data (January 2003)
Hourly Data Report for January 21, 2003
TIME
LST
Temp Definition
°C
Dew Point Definition
°C
Rel Hum Definition
%
Precip. Amount Definition
mm

Wind Dir Definition
10's deg

Wind Spd Definition
km/h
Visibility Definition
km
Stn Press Definition
kPa
Hmdx Definition


Wind Chill Definition


Weather Definition


00:00 -10.4 -14.2 74     0 LegendMM 100.07     LegendNANA
01:00
02:00 -11.1 -14.9 73     0 LegendMM 100.09     LegendNANA
03:00 -11.1 -14.6 75     0 LegendMM 100.11     LegendNANA
04:00 -11.1 -14.6 75     0 LegendMM 100.09     LegendNANA
05:00 -11.4 -14.7 77     0 LegendMM 100.10     LegendNANA
06:00 -11.5 -15.0 75     0 LegendMM 100.11     LegendNANA
07:00 -13.2 -16.8 74     0 LegendMM 100.17     LegendNANA
08:00 -13.2 -17.3 71     0 LegendMM 100.22     LegendNANA
09:00 -12.8 -18.8 61     0 LegendMM 100.29     LegendNANA
10:00 -11.6 -18.1 59     0 LegendMM 100.34     LegendNANA
11:00 -10.5 -17.7 55     0 LegendMM 100.43     LegendNANA
12:00 -10.5 -17.9 55     0 LegendMM 100.43     LegendNANA
13:00 -9.8 -18.1 51     0 LegendMM 100.44     LegendNANA
14:00 -10.4 -18.9 50     0 LegendMM 100.46     LegendNANA
15:00 -11.6 -16.6 66     0 LegendMM 100.49     LegendNANA
16:00 -11.3 -18.6 55     0 LegendMM 100.51     LegendNANA
17:00 -12.3 -18.6 59     0 LegendMM 100.55     LegendNANA
18:00 -13.2 -19.0 62     0 LegendMM 100.62     LegendNANA
19:00 -13.6 -18.5 66     0 LegendMM 100.64     LegendNANA
20:00 -13.0 -17.8 67     0 LegendMM 100.62     LegendNANA
21:00 -12.4 -18.5 60     0 LegendMM 100.55     LegendNANA
22:00 -12.1 -18.2 60     0 LegendMM 100.52     LegendNANA
23:00 -11.4 -16.2 68     0 LegendMM 100.44     LegendNANA

Notes on Data Quality.

Legend

  • E = Estimated
  • M = Missing
  • NA = Not Available*
  • [empty] = Indicates an unobserved value
Date modified: